Time,TemperatureF,DewpointF,PressureIn,WindDirection,WindDirectionDegrees,WindSpeedMPH,WindSpeedGustMPH,Humidity,HourlyPrecipIn,Conditions,Clouds,dailyrainin,SoftwareType,DateUTC
2013-09-29 00:00:00,50.8,49.4,30.22,NE,45,0.0,0.0,95,0.00,,,-99.99,Weather View 32 v60,2013-09-29 04:00:00,
2013-09-29 00:05:00,50.7,49.3,30.22,NE,45,0.0,0.0,95,0.00,,,-99.99,Weather View 32 v60,2013-09-29 04:05:00,
2013-09-29 00:10:00,50.5,49.1,30.22,NE,45,0.0,0.0,95,0.00,,,-99.99,Weather View 32 v60,2013-09-29 04:10:00,
2013-09-29 00:15:00,50.5,49.1,30.22,NE,45,0.0,0.0,95,0.00,,,-99.99,Weather View 32 v60,2013-09-29 04:15:00,
2013-09-29 00:20:00,50.4,49.0,30.22,NE,45,0.0,0.0,95,0.00,,,-99.99,Weather View 32 v60,2013-09-29 04:20:00,
2013-09-29 00:25:00,50.3,48.9,30.22,NE,45,0.0,0.0,95,0.00,,,-99.99,Weather View 32 v60,2013-09-29 04:25:00,
2013-09-29 00:35:00,50.1,48.7,30.22,NE,45,0.0,0.0,95,0.00,,,-99.99,Weather View 32 v60,2013-09-29 04:35:00,
2013-09-29 00:45:00,49.9,48.5,30.22,NE,45,0.0,0.0,95,0.00,,,-99.99,Weather View 32 v60,2013-09-29 04:45:00,
2013-09-29 00:55:00,49.7,48.3,30.22,NE,45,0.0,0.0,95,0.00,,,-99.99,Weather View 32 v60,2013-09-29 04:55:00,
2013-09-29 01:00:00,49.6,48.5,30.22,NE,45,0.0,0.0,96,0.00,,,-99.99,Weather View 32 v60,2013-09-29 05:00:00,
2013-09-29 01:05:00,49.5,48.4,30.22,NE,45,0.0,0.0,96,0.00,,,-99.99,Weather View 32 v60,2013-09-29 05:05:00,
2013-09-29 01:10:00,49.4,48.3,30.21,NE,45,0.0,0.0,96,0.00,,,-99.99,Weather View 32 v60,2013-09-29 05:10:00,
2013-09-29 01:20:00,49.2,48.1,30.22,NE,45,0.0,0.0,96,0.00,,,-99.99,Weather View 32 v60,2013-09-29 05:20:00,
2013-09-29 01:25:00,49.2,48.1,30.22,NE,45,0.0,0.0,96,0.00,,,-99.99,Weather View 32 v60,2013-09-29 05:25:00,
2013-09-29 01:35:00,49.0,47.9,30.22,NE,45,0.0,0.0,96,0.00,,,-99.99,Weather View 32 v60,2013-09-29 05:35:00,
2013-09-29 01:45:00,48.9,47.8,30.22,NE,45,0.0,1.0,96,0.00,,,-99.99,Weather View 32 v60,2013-09-29 05:45:00,
2013-09-29 01:55:00,48.7,47.6,30.21,NE,45,0.0,1.0,96,0.00,,,-99.99,Weather View 32 v60,2013-09-29 05:55:00,
2013-09-29 02:00:00,48.6,47.5,30.21,NE,45,0.0,1.0,96,0.00,,,-99.99,Weather View 32 v60,2013-09-29 06:00:00,
2013-09-29 02:10:00,48.5,47.7,30.21,NE,45,0.0,1.0,97,0.00,,,-99.99,Weather View 32 v60,2013-09-29 06:10:00,
2013-09-29 02:20:00,48.5,47.7,30.21,NE,45,0.0,1.0,97,0.00,,,-99.99,Weather View 32 v60,2013-09-29 06:20:00,
2013-09-29 02:30:00,48.4,47.6,30.21,NE,45,0.0,1.0,97,0.00,,,-99.99,Weather View 32 v60,2013-09-29 06:30:00,
2013-09-29 02:40:00,48.3,47.5,30.21,NE,45,0.0,0.0,97,0.00,,,-99.99,Weather View 32 v60,2013-09-29 06:40:00,
2013-09-29 02:45:00,48.3,47.5,30.21,NE,45,0.0,0.0,97,0.00,,,-99.99,Weather View 32 v60,2013-09-29 06:45:00,
2013-09-29 02:55:00,48.3,47.5,30.20,NE,45,0.0,0.0,97,0.00,,,-99.99,Weather View 32 v60,2013-09-29 06:55:00,
2013-09-29 03:05:00,48.2,47.7,30.20,NE,45,0.0,0.0,98,0.00,,,-99.99,Weather View 32 v60,2013-09-29 07:05:00,
2013-09-29 03:10:00,48.2,47.7,30.20,NE,45,0.0,0.0,98,0.00,,,-99.99,Weather View 32 v60,2013-09-29 07:10:00,
2013-09-29 03:20:00,48.2,47.7,30.20,NE,45,0.0,0.0,98,0.00,,,-99.99,Weather View 32 v60,2013-09-29 07:20:00,
2013-09-29 03:30:00,48.1,47.6,30.20,NE,45,0.0,0.0,98,0.00,,,-99.99,Weather View 32 v60,2013-09-29 07:30:00,
2013-09-29 03:40:00,48.0,47.5,30.19,NE,45,1.0,1.0,98,0.00,,,-99.99,Weather View 32 v60,2013-09-29 07:40:00,
2013-09-29 03:45:00,47.9,47.4,30.19,NE,45,0.0,1.0,98,0.00,,,-99.99,Weather View 32 v60,2013-09-29 07:45:00,
2013-09-29 03:55:00,47.8,47.3,30.19,NE,45,0.0,1.0,98,0.00,,,-99.99,Weather View 32 v60,2013-09-29 07:55:00,
2013-09-29 04:00:00,47.8,47.3,30.19,ENE,68,1.0,2.0,98,0.00,,,-99.99,Weather View 32 v60,2013-09-29 08:00:00,
2013-09-29 04:10:00,47.8,47.3,30.19,ENE,68,0.0,2.0,98,0.00,,,-99.99,Weather View 32 v60,2013-09-29 08:10:00,
2013-09-29 04:20:00,47.9,47.6,30.19,ENE,68,1.0,2.0,99,0.00,,,-99.99,Weather View 32 v60,2013-09-29 08:20:00,
2013-09-29 04:30:00,48.0,47.7,30.19,ENE,68,0.0,2.0,99,0.00,,,-99.99,Weather View 32 v60,2013-09-29 08:30:00,
2013-09-29 04:40:00,48.2,47.9,30.19,ENE,68,0.0,2.0,99,0.00,,,-99.99,Weather View 32 v60,2013-09-29 08:40:00,
2013-09-29 04:50:00,48.2,47.9,30.19,ENE,68,1.0,2.0,99,0.00,,,-99.99,Weather View 32 v60,2013-09-29 08:50:00,
2013-09-29 04:58:00,48.3,48.3,30.19,ENE,68,0.0,2.0,100,0.00,,,-99.99,Weather View 32 v60,2013-09-29 08:58:00,
2013-09-29 05:05:00,48.2,48.2,30.19,ENE,68,1.0,2.0,100,0.00,,,-99.99,Weather View 32 v60,2013-09-29 09:05:00,
2013-09-29 05:10:00,48.2,48.2,30.19,ENE,68,1.0,2.0,100,0.00,,,-99.99,Weather View 32 v60,2013-09-29 09:10:00,
2013-09-29 05:15:00,48.2,48.2,30.19,ENE,68,1.0,2.0,100,0.00,,,-99.99,Weather View 32 v60,2013-09-29 09:15:00,
2013-09-29 05:25:00,48.3,48.3,30.19,ENE,68,1.0,2.0,100,0.00,,,-99.99,Weather View 32 v60,2013-09-29 09:25:00,
2013-09-29 05:35:00,48.3,48.3,30.19,ENE,68,0.0,2.0,100,0.00,,,-99.99,Weather View 32 v60,2013-09-29 09:35:00,
2013-09-29 05:45:00,48.3,48.3,30.19,ENE,68,0.0,2.0,100,0.00,,,-99.99,Weather View 32 v60,2013-09-29 09:45:00,
2013-09-29 05:55:00,48.3,48.3,30.19,ENE,68,0.0,2.0,100,0.00,,,-99.99,Weather View 32 v60,2013-09-29 09:55:00,
2013-09-29 06:00:00,48.4,48.4,30.19,ENE,68,0.0,2.0,100,0.00,,,-99.99,Weather View 32 v60,2013-09-29 10:00:00,
2013-09-29 06:10:00,48.4,48.4,30.20,ENE,68,0.0,2.0,100,0.00,,,-99.99,Weather View 32 v60,2013-09-29 10:10:00,
2013-09-29 06:20:00,48.4,48.4,30.20,ENE,68,0.0,2.0,100,0.00,,,-99.99,Weather View 32 v60,2013-09-29 10:20:00,
2013-09-29 06:30:00,48.4,48.4,30.20,ENE,68,0.0,2.0,100,0.00,,,-99.99,Weather View 32 v60,2013-09-29 10:30:00,
2013-09-29 06:40:00,48.5,48.5,30.20,ENE,68,0.0,1.0,100,0.00,,,-99.99,Weather View 32 v60,2013-09-29 10:40:00,
2013-09-29 06:50:00,48.5,48.5,30.20,ENE,68,1.0,2.0,100,0.00,,,-99.99,Weather View 32 v60,2013-09-29 10:50:00,
2013-09-29 06:59:00,48.5,48.5,30.20,ENE,68,2.0,3.0,100,0.00,,,-99.99,Weather View 32 v60,2013-09-29 10:59:00,
2013-09-29 07:05:00,48.5,48.5,30.20,ENE,68,0.0,3.0,100,0.00,,,-99.99,Weather View 32 v60,2013-09-29 11:05:00,
2013-09-29 07:10:00,48.4,48.4,30.20,ENE,68,2.0,3.0,100,0.00,,,-99.99,Weather View 32 v60,2013-09-29 11:10:00,
2013-09-29 07:20:00,48.4,48.4,30.19,ENE,68,0.0,3.0,100,0.00,,,-99.99,Weather View 32 v60,2013-09-29 11:20:00,
2013-09-29 07:30:00,48.4,48.4,30.20,ENE,68,1.0,3.0,100,0.00,,,-99.99,Weather View 32 v60,2013-09-29 11:30:00,
2013-09-29 07:40:00,48.3,48.3,30.19,ENE,68,0.0,3.0,100,0.00,,,-99.99,Weather View 32 v60,2013-09-29 11:40:00,
2013-09-29 07:45:00,48.3,48.3,30.20,ENE,68,0.0,3.0,100,0.00,,,-99.99,Weather View 32 v60,2013-09-29 11:45:00,
2013-09-29 07:55:00,48.5,48.5,30.20,ENE,68,1.0,3.0,100,0.00,,,-99.99,Weather View 32 v60,2013-09-29 11:55:00,
2013-09-29 08:00:00,48.6,48.6,30.20,ENE,68,0.0,2.0,100,0.00,,,-99.99,Weather View 32 v60,2013-09-29 12:00:00,
2013-09-29 08:10:00,48.8,48.8,30.20,ENE,68,1.0,2.0,100,0.00,,,-99.99,Weather View 32 v60,2013-09-29 12:10:00,
2013-09-29 08:15:00,48.9,48.9,30.20,ENE,68,0.0,2.0,100,0.00,,,-99.99,Weather View 32 v60,2013-09-29 12:15:00,
2013-09-29 08:25:00,49.2,49.2,30.20,ENE,68,1.0,2.0,100,0.00,,,-99.99,Weather View 32 v60,2013-09-29 12:25:00,
2013-09-29 08:35:00,49.4,49.4,30.20,ENE,68,1.0,2.0,100,0.00,,,-99.99,Weather View 32 v60,2013-09-29 12:35:00,
2013-09-29 08:45:00,49.7,49.7,30.20,ENE,68,1.0,2.0,100,0.00,,,-99.99,Weather View 32 v60,2013-09-29 12:45:00,
2013-09-29 08:55:00,50.1,50.1,30.20,ENE,68,0.0,2.0,100,0.00,,,-99.99,Weather View 32 v60,2013-09-29 12:55:00,
2013-09-29 09:01:00,50.2,50.2,30.20,ENE,68,1.0,2.0,100,0.00,,,-99.99,Weather View 32 v60,2013-09-29 13:01:00,
2013-09-29 09:10:00,50.6,50.6,30.20,ENE,68,1.0,2.0,100,0.00,,,-99.99,Weather View 32 v60,2013-09-29 13:10:00,
2013-09-29 09:15:00,50.7,50.7,30.20,ENE,68,0.0,2.0,100,0.00,,,-99.99,Weather View 32 v60,2013-09-29 13:15:00,
2013-09-29 09:25:00,51.0,51.0,30.21,South,180,1.0,4.0,100,0.00,,,-99.99,Weather View 32 v60,2013-09-29 13:25:00,
2013-09-29 09:35:00,51.4,51.4,30.21,South,180,2.0,4.0,100,0.00,,,-99.99,Weather View 32 v60,2013-09-29 13:35:00,
2013-09-29 09:45:00,51.9,51.9,30.21,SSE,158,1.0,4.0,100,0.00,,,-99.99,Weather View 32 v60,2013-09-29 13:45:00,
2013-09-29 09:55:00,52.3,52.3,30.21,South,180,1.0,4.0,100,0.00,,,-99.99,Weather View 32 v60,2013-09-29 13:55:00,
2013-09-29 10:00:00,52.5,52.5,30.21,South,180,1.0,4.0,100,0.00,,,-99.99,Weather View 32 v60,2013-09-29 14:00:00,
2013-09-29 10:10:00,52.8,52.8,30.20,East,90,1.0,4.0,100,0.00,,,-99.99,Weather View 32 v60,2013-09-29 14:10:00,
2013-09-29 10:20:00,53.2,53.2,30.21,SSE,158,0.0,4.0,100,0.00,,,-99.99,Weather View 32 v60,2013-09-29 14:20:00,
2013-09-29 10:30:00,53.5,53.5,30.21,SSE,158,1.0,4.0,100,0.00,,,-99.99,Weather View 32 v60,2013-09-29 14:30:00,
2013-09-29 10:40:00,53.7,53.7,30.20,ENE,68,1.0,4.0,100,0.00,,,-99.99,Weather View 32 v60,2013-09-29 14:40:00,
2013-09-29 10:50:00,54.2,54.2,30.20,South,180,3.0,4.0,100,0.00,,,-99.99,Weather View 32 v60,2013-09-29 14:50:00,
2013-09-29 11:00:00,55.0,54.7,30.20,South,180,0.0,4.0,99,0.00,,,-99.99,Weather View 32 v60,2013-09-29 15:00:00,
2013-09-29 11:10:00,55.6,55.0,30.19,SSE,158,1.0,4.0,98,0.00,,,-99.99,Weather View 32 v60,2013-09-29 15:10:00,
2013-09-29 11:15:00,56.2,55.4,30.19,South,180,2.0,4.0,97,0.00,,,-99.99,Weather View 32 v60,2013-09-29 15:15:00,
2013-09-29 11:25:00,57.3,55.9,30.19,SSE,158,3.0,4.0,95,0.00,,,-99.99,Weather View 32 v60,2013-09-29 15:25:00,
2013-09-29 11:35:00,58.6,56.3,30.18,SSE,158,2.0,6.0,92,0.00,,,-99.99,Weather View 32 v60,2013-09-29 15:35:00,
2013-09-29 11:45:00,59.9,56.6,30.18,South,180,1.0,6.0,89,0.00,,,-99.99,Weather View 32 v60,2013-09-29 15:45:00,
2013-09-29 11:55:00,60.8,55.9,30.17,ENE,68,3.0,6.0,84,0.00,,,-99.99,Weather View 32 v60,2013-09-29 15:55:00,
2013-09-29 12:02:00,61.1,55.5,30.17,South,180,3.0,6.0,82,0.00,,,-99.99,Weather View 32 v60,2013-09-29 16:02:00,
2013-09-29 12:10:00,62.1,55.8,30.17,SSE,158,1.0,6.0,80,0.00,,,-99.99,Weather View 32 v60,2013-09-29 16:10:00,
2013-09-29 12:20:00,62.9,55.6,30.16,South,180,2.0,6.0,77,0.00,,,-99.99,Weather View 32 v60,2013-09-29 16:20:00,
2013-09-29 12:25:00,63.0,54.9,30.16,ESE,113,2.0,6.0,75,0.00,,,-99.99,Weather View 32 v60,2013-09-29 16:25:00,
2013-09-29 12:30:00,63.2,54.8,30.16,ESE,113,0.0,6.0,74,0.00,,,-99.99,Weather View 32 v60,2013-09-29 16:30:00,
2013-09-29 12:40:00,63.5,53.5,30.16,SSE,158,1.0,6.0,70,0.00,,,-99.99,Weather View 32 v60,2013-09-29 16:40:00,
2013-09-29 12:45:00,63.5,53.1,30.16,South,180,1.0,6.0,69,0.00,,,-99.99,Weather View 32 v60,2013-09-29 16:45:00,
2013-09-29 12:55:00,63.7,53.3,30.15,East,90,3.0,6.0,69,0.00,,,-99.99,Weather View 32 v60,2013-09-29 16:55:00,
2013-09-29 13:03:00,63.8,52.6,30.15,ENE,68,1.0,6.0,67,0.00,,,-99.99,Weather View 32 v60,2013-09-29 17:03:00,
2013-09-29 13:10:00,64.2,53.4,30.15,South,180,1.0,6.0,68,0.00,,,-99.99,Weather View 32 v60,2013-09-29 17:10:00,
2013-09-29 13:20:00,64.4,52.8,30.15,ESE,113,3.0,6.0,66,0.00,,,-99.99,Weather View 32 v60,2013-09-29 17:20:00,
2013-09-29 13:25:00,64.5,52.4,30.14,South,180,1.0,6.0,65,0.00,,,-99.99,Weather View 32 v60,2013-09-29 17:25:00,
2013-09-29 13:35:00,64.6,51.3,30.14,East,90,4.0,6.0,62,0.00,,,-99.99,Weather View 32 v60,2013-09-29 17:35:00,
2013-09-29 13:45:00,64.9,50.2,30.14,ESE,113,1.0,6.0,59,0.00,,,-99.99,Weather View 32 v60,2013-09-29 17:45:00,
2013-09-29 13:55:00,65.0,49.8,30.13,East,90,1.0,6.0,58,0.00,,,-99.99,Weather View 32 v60,2013-09-29 17:55:00,
2013-09-29 14:00:00,65.0,49.8,30.13,NE,45,1.0,6.0,58,0.00,,,-99.99,Weather View 32 v60,2013-09-29 18:00:00,
2013-09-29 14:10:00,65.0,48.9,30.12,SE,135,1.0,6.0,56,0.00,,,-99.99,Weather View 32 v60,2013-09-29 18:10:00,
2013-09-29 14:20:00,64.8,48.7,30.12,SSE,158,1.0,6.0,56,0.00,,,-99.99,Weather View 32 v60,2013-09-29 18:20:00,
2013-09-29 14:30:00,64.7,49.1,30.12,East,90,1.0,6.0,57,0.00,,,-99.99,Weather View 32 v60,2013-09-29 18:30:00,
2013-09-29 14:40:00,64.6,49.9,30.11,East,90,1.0,5.0,59,0.00,,,-99.99,Weather View 32 v60,2013-09-29 18:40:00,
2013-09-29 14:50:00,64.4,50.2,30.10,NE,45,2.0,5.0,60,0.00,,,-99.99,Weather View 32 v60,2013-09-29 18:50:00,
2013-09-29 15:00:00,64.2,49.5,30.10,South,180,1.0,5.0,59,0.00,,,-99.99,Weather View 32 v60,2013-09-29 19:00:00,
2013-09-29 15:05:00,64.1,49.9,30.10,SSE,158,1.0,5.0,60,0.00,,,-99.99,Weather View 32 v60,2013-09-29 19:05:00,
2013-09-29 15:15:00,64.0,48.9,30.09,SSE,158,1.0,6.0,58,0.00,,,-99.99,Weather View 32 v60,2013-09-29 19:15:00,
2013-09-29 15:25:00,63.8,49.2,30.09,NE,45,0.0,6.0,59,0.00,,,-99.99,Weather View 32 v60,2013-09-29 19:25:00,
2013-09-29 15:35:00,63.7,49.1,30.08,NE,45,3.0,6.0,59,0.00,,,-99.99,Weather View 32 v60,2013-09-29 19:35:00,
2013-09-29 15:45:00,63.5,48.4,30.08,East,90,1.0,6.0,58,0.00,,,-99.99,Weather View 32 v60,2013-09-29 19:45:00,
2013-09-29 15:55:00,63.4,48.8,30.08,SSE,158,1.0,6.0,59,0.00,,,-99.99,Weather View 32 v60,2013-09-29 19:55:00,
2013-09-29 16:00:00,63.3,49.1,30.08,NNE,23,2.0,6.0,60,0.00,,,-99.99,Weather View 32 v60,2013-09-29 20:00:00,
2013-09-29 16:10:00,63.2,48.6,30.08,South,180,1.0,4.0,59,0.00,,,-99.99,Weather View 32 v60,2013-09-29 20:10:00,
2013-09-29 16:20:00,63.1,48.0,30.08,East,90,0.0,4.0,58,0.00,,,-99.99,Weather View 32 v60,2013-09-29 20:20:00,
2013-09-29 16:25:00,63.0,48.9,30.08,East,90,0.0,4.0,60,0.00,,,-99.99,Weather View 32 v60,2013-09-29 20:25:00,
2013-09-29 16:35:00,62.6,48.9,30.07,ESE,113,0.0,4.0,61,0.00,,,-99.99,Weather View 32 v60,2013-09-29 20:35:00,
2013-09-29 16:40:00,62.5,49.3,30.07,ESE,113,0.0,4.0,62,0.00,,,-99.99,Weather View 32 v60,2013-09-29 20:40:00,
2013-09-29 16:45:00,62.3,49.5,30.07,ESE,113,1.0,4.0,63,0.00,,,-99.99,Weather View 32 v60,2013-09-29 20:45:00,
2013-09-29 16:55:00,62.2,50.7,30.08,South,180,4.0,9.0,66,0.00,,,-99.99,Weather View 32 v60,2013-09-29 20:55:00,
2013-09-29 17:05:00,62.1,51.8,30.08,SSE,158,3.0,9.0,69,0.00,,,-99.99,Weather View 32 v60,2013-09-29 21:05:00,
2013-09-29 17:15:00,61.9,52.4,30.08,SSE,158,1.0,9.0,71,0.00,,,-99.99,Weather View 32 v60,2013-09-29 21:15:00,
2013-09-29 17:25:00,61.7,52.6,30.08,SSE,158,4.0,9.0,72,0.00,,,-99.99,Weather View 32 v60,2013-09-29 21:25:00,
2013-09-29 17:35:00,61.4,52.3,30.08,South,180,4.0,9.0,72,0.00,,,-99.99,Weather View 32 v60,2013-09-29 21:35:00,
2013-09-29 17:45:00,61.0,52.6,30.08,South,180,0.0,9.0,74,0.00,,,-99.99,Weather View 32 v60,2013-09-29 21:45:00,
2013-09-29 17:55:00,60.5,52.9,30.08,ESE,113,0.0,9.0,76,0.00,,,-99.99,Weather View 32 v60,2013-09-29 21:55:00,
2013-09-29 18:00:00,60.2,52.6,30.09,SE,135,4.0,7.0,76,0.00,,,-99.99,Weather View 32 v60,2013-09-29 22:00:00,
2013-09-29 18:06:00,60.0,52.8,30.09,SSE,158,1.0,7.0,77,0.00,,,-99.99,Weather View 32 v60,2013-09-29 22:06:00,
2013-09-29 18:15:00,59.5,52.6,30.08,SSE,158,1.0,7.0,78,0.00,,,-99.99,Weather View 32 v60,2013-09-29 22:15:00,
2013-09-29 18:20:00,59.3,52.4,30.08,South,180,1.0,7.0,78,0.00,,,-99.99,Weather View 32 v60,2013-09-29 22:20:00,
2013-09-29 18:30:00,58.7,52.2,30.08,South,180,1.0,6.0,79,0.00,,,-99.99,Weather View 32 v60,2013-09-29 22:30:00,
2013-09-29 18:40:00,58.1,51.9,30.08,South,180,0.0,6.0,80,0.00,,,-99.99,Weather View 32 v60,2013-09-29 22:40:00,
2013-09-29 18:50:00,57.4,51.6,30.08,South,180,1.0,5.0,81,0.00,,,-99.99,Weather View 32 v60,2013-09-29 22:50:00,
2013-09-29 19:00:00,56.8,51.4,30.08,South,180,1.0,4.0,82,0.00,,,-99.99,Weather View 32 v60,2013-09-29 23:00:00,
2013-09-29 19:06:00,56.3,51.2,30.08,East,90,1.0,4.0,83,0.00,,,-99.99,Weather View 32 v60,2013-09-29 23:06:00,
2013-09-29 19:15:00,55.8,50.7,30.08,South,180,1.0,4.0,83,0.00,,,-99.99,Weather View 32 v60,2013-09-29 23:15:00,
2013-09-29 19:25:00,55.4,50.6,30.08,South,180,3.0,4.0,84,0.00,,,-99.99,Weather View 32 v60,2013-09-29 23:25:00,
2013-09-29 19:35:00,55.0,50.6,30.09,South,180,1.0,5.0,85,0.00,,,-99.99,Weather View 32 v60,2013-09-29 23:35:00,
2013-09-29 19:45:00,54.4,50.3,30.09,South,180,1.0,5.0,86,0.00,,,-99.99,Weather View 32 v60,2013-09-29 23:45:00,
2013-09-29 19:55:00,54.0,49.9,30.09,South,180,1.0,5.0,86,0.00,,,-99.99,Weather View 32 v60,2013-09-29 23:55:00,
2013-09-29 20:05:00,53.5,49.7,30.08,South,180,0.0,5.0,87,0.00,,,-99.99,Weather View 32 v60,2013-09-30 00:05:00,
2013-09-29 20:10:00,53.3,49.5,30.09,South,180,1.0,5.0,87,0.00,,,-99.99,Weather View 32 v60,2013-09-30 00:10:00,
2013-09-29 20:20:00,52.9,49.4,30.08,SSE,158,0.0,5.0,88,0.00,,,-99.99,Weather View 32 v60,2013-09-30 00:20:00,
2013-09-29 20:25:00,52.7,49.2,30.08,SSE,158,0.0,5.0,88,0.00,,,-99.99,Weather View 32 v60,2013-09-30 00:25:00,
2013-09-29 20:30:00,52.5,49.3,30.08,South,180,1.0,3.0,89,0.00,,,-99.99,Weather View 32 v60,2013-09-30 00:30:00,
2013-09-29 20:40:00,52.2,49.0,30.08,SSE,158,0.0,3.0,89,0.00,,,-99.99,Weather View 32 v60,2013-09-30 00:40:00,
2013-09-29 20:50:00,51.9,49.1,30.08,SSE,158,0.0,3.0,90,0.00,,,-99.99,Weather View 32 v60,2013-09-30 00:50:00,
2013-09-29 21:00:00,51.6,48.8,30.08,SSE,158,0.0,3.0,90,0.00,,,-99.99,Weather View 32 v60,2013-09-30 01:00:00,
2013-09-29 21:07:00,51.4,48.6,30.08,SSE,158,0.0,3.0,90,0.00,,,-99.99,Weather View 32 v60,2013-09-30 01:07:00,
2013-09-29 21:15:00,51.0,48.5,30.08,South,180,0.0,3.0,91,0.00,,,-99.99,Weather View 32 v60,2013-09-30 01:15:00,
2013-09-29 21:25:00,50.6,48.1,30.08,South,180,0.0,3.0,91,0.00,,,-99.99,Weather View 32 v60,2013-09-30 01:25:00,
2013-09-29 21:35:00,50.3,48.1,30.08,South,180,0.0,1.0,92,0.00,,,-99.99,Weather View 32 v60,2013-09-30 01:35:00,
2013-09-29 21:40:00,50.2,48.0,30.08,South,180,0.0,1.0,92,0.00,,,-99.99,Weather View 32 v60,2013-09-30 01:40:00,
2013-09-29 21:45:00,50.0,47.8,30.08,South,180,0.0,0.0,92,0.00,,,-99.99,Weather View 32 v60,2013-09-30 01:45:00,
2013-09-29 22:00:00,49.6,47.4,30.08,SSE,158,0.0,1.0,92,0.00,,,-99.99,Weather View 32 v60,2013-09-30 02:00:00,
2013-09-29 22:05:00,49.5,47.6,30.08,SSE,158,0.0,1.0,93,0.00,,,-99.99,Weather View 32 v60,2013-09-30 02:05:00,
2013-09-29 22:10:00,49.4,47.5,30.08,SSE,158,0.0,1.0,93,0.00,,,-99.99,Weather View 32 v60,2013-09-30 02:10:00,
2013-09-29 22:20:00,49.1,47.2,30.08,SSE,158,0.0,1.0,93,0.00,,,-99.99,Weather View 32 v60,2013-09-30 02:20:00,
2013-09-29 22:30:00,48.9,47.0,30.08,South,180,0.0,1.0,93,0.00,,,-99.99,Weather View 32 v60,2013-09-30 02:30:00,
2013-09-29 22:40:00,48.7,47.0,30.08,South,180,0.0,1.0,94,0.00,,,-99.99,Weather View 32 v60,2013-09-30 02:40:00,
2013-09-29 22:45:00,48.7,47.0,30.08,South,180,0.0,1.0,94,0.00,,,-99.99,Weather View 32 v60,2013-09-30 02:45:00,
2013-09-29 22:50:00,48.5,46.8,30.08,South,180,1.0,1.0,94,0.00,,,-99.99,Weather View 32 v60,2013-09-30 02:50:00,
2013-09-29 22:55:00,48.4,46.8,30.08,South,180,0.0,1.0,94,0.00,,,-99.99,Weather View 32 v60,2013-09-30 02:55:00,
2013-09-29 23:00:00,48.2,46.6,30.08,SSE,158,0.0,1.0,94,0.00,,,-99.99,Weather View 32 v60,2013-09-30 03:00:00,
2013-09-29 23:05:00,48.0,46.4,30.08,SSE,158,0.0,1.0,94,0.00,,,-99.99,Weather View 32 v60,2013-09-30 03:05:00,
2013-09-29 23:10:00,47.9,46.3,30.08,SSE,158,0.0,1.0,94,0.00,,,-99.99,Weather View 32 v60,2013-09-30 03:10:00,
2013-09-29 23:20:00,47.6,46.0,30.08,SSE,158,0.0,1.0,94,0.00,,,-99.99,Weather View 32 v60,2013-09-30 03:20:00,
2013-09-29 23:25:00,47.5,46.1,30.08,SSE,158,0.0,1.0,95,0.00,,,-99.99,Weather View 32 v60,2013-09-30 03:25:00,
2013-09-29 23:35:00,47.3,45.9,30.09,South,180,0.0,1.0,95,0.00,,,-99.99,Weather View 32 v60,2013-09-30 03:35:00,
2013-09-29 23:40:00,47.2,45.8,30.09,South,180,0.0,1.0,95,0.00,,,-99.99,Weather View 32 v60,2013-09-30 03:40:00,
2013-09-29 23:50:00,47.2,45.8,30.09,South,180,0.0,1.0,95,0.00,,,-99.99,Weather View 32 v60,2013-09-30 03:50:00,